Miscellaneous Local Product
Issued by NWS Hastings, NE

Home | Current Version | Previous Version | Text Only | Print | Product List | Glossary Off
Versions: 1 2 3 4 5 6 7 8 9 10 11 12 13 14 15 16 17 18 19 20 21 22 23 24 25 26 27 28 29 30 31 32 33 34 35 36 37 38 39 40 41 42 43 44 45 46 47 48 49 50

813
AXUS43 KGID 021002
MISGRI

GID CWA HOURLY WEATHER ROUNDUP
NATIONAL WEATHER SERVICE HASTINGS NE
400 AM CST FRI DEC 02 2016

NOTE: "FAIR" INDICATES FEW OR NO CLOUDS BELOW 12,000 FEET WITH NO
SIGNIFICANT WEATHER AND/OR OBSTRUCTIONS TO VISIBILITY.

...SOUTH CENTRAL NEBRASKA...

CITY           SKY/WX    TMP DP  RH WIND       PRES   REMARKS
GRAND ISLAND   CLEAR     20  18  92 CALM      30.14S
HASTINGS       CLEAR     19  16  88 NE5       30.14S WCI  12
KEARNEY        CLEAR     21  16  79 CALM      30.12F
ORD            CLOUDY    19  15  84 CALM      30.14R
YORK           CLEAR     21  19  93 N3        30.15S
AURORA         CLEAR     19  18  96 N5        30.15S WCI  12
LEXINGTON      CLEAR     18  15  88 W7        30.13R WCI   9
HOLDREGE       CLEAR     19  15  85 N3        30.11S
HEBRON         CLEAR     19  17  93 CALM      30.15S

...NEBRASKA PANHANDLE...

CITY           SKY/WX    TMP DP  RH WIND       PRES   REMARKS
CHADRON        CLOUDY    27  21  78 W6        30.11R WCI  20
ALLIANCE       CLEAR     12   8  84 SW3       30.09R
SCOTTSBLUFF    PTCLDY    19  13  77 CALM      30.12R
SIDNEY         CLEAR     17  13  84 NW12      30.10R WCI   4

...WESTERN AND NORTH CENTRAL NEBRASKA...

CITY           SKY/WX    TMP DP  RH WIND       PRES   REMARKS
VALENTINE      CLOUDY    21  18  88 W6        30.13R WCI  13
AINSWORTH      CLEAR     22  21  98 CALM      30.12S
ONEILL         PTCLDY    25  24  95 NW3       30.15S
BROKEN BOW     CLOUDY    26  24  92 CALM      30.13R
IMPERIAL       CLEAR     20  11  68 NW3       30.12R
NORTH PLATTE   CLEAR     16  12  84 NW3       30.13R
MCCOOK         CLEAR     20  13  74 W10       30.13R WCI   9

...EASTERN NEBRASKA...

CITY           SKY/WX    TMP DP  RH WIND       PRES   REMARKS
NORFOLK        CLOUDY    24  22  91 W7        30.15R WCI  16
SO SIOUX CITY  CLOUDY    35  32  88 W6        30.16S WCI  30
TEKAMAH        CLOUDY    32  28  85 W5        30.17R WCI  27
COLUMBUS       PTCLDY    25  21  86 CALM      30.16R
ALBION         PTCLDY    23  20  89 NW3       30.15R
OMAHA EPPLEY   CLOUDY    33  26  75 W5        30.17R WCI  29
OFFUTT AFB     CLOUDY    30  30  99 NW3       30.16S
MILLARD        CLOUDY    33  28  82 NW3       30.17S
LINCOLN        CLEAR     26  23  88 CALM      30.18R
NEBRASKA CITY  CLEAR     28  23  81 NW5       30.16S WCI  23
BEATRICE       CLEAR     19  17  92 CALM      30.16S
FALLS CITY     CLEAR     23  21  92 NW5       30.16S WCI  17

...NORTHERN KANSAS...

CITY           SKY/WX    TMP DP  RH WIND       PRES   REMARKS
GOODLAND       CLEAR     18   8  65 W8        30.11R WCI   8
HILL CITY      CLEAR     20  12  71 W7        30.13R WCI  11
NORTON         SUNNY     16   9  73 CALM      30.11
PHILLIPSBURG   CLEAR     19  16  86 W3        30.13R
SMITH CENTER   CLEAR     18  16  93 CALM      30.13R
BELOIT         CLEAR     16  12  86 CALM      30.15R
HAYS           CLEAR     24  15  68 NW7       30.13R WCI  16
RUSSELL        CLEAR     20  14  77 SW6       30.12R WCI  12
CONCORDIA      CLEAR     24  19  81 CALM      30.14S
SALINA         CLEAR     23  17  78 CALM      30.16R
TOPEKA         CLEAR     24  21  88 NW3       30.17S



USA.gov is the U.S. government's official web portal to all federal, state and local government web resources and services.